[[{"header":{"parameterUnit":"m.s-1","parameterCategory":1,"la1":30.2991,"la2":30.254,"lo1":-89.0895,"lo2":-89.0444,"dy":0.0017,"dx":0.0017,"nx":28,"ny":28,"refTime":"2025-08-23T09:00:00:Z","depth":0,"parameterNumber":2,"parameterNumberName":"U-component_of_WINDS"},"data":[0,0,0,0,0,0,0,0,0,0,0,0,0,0,0,0,0,0,0,0,0,0,0,0,0,0,0,0,0,0,0,0,0,0,0,0,0,0,0,0,0,0,0,0,0,0,0,0,0,0,0,0,0,0,0,0,0,0,2.8667,2.8667,0,2.8645,2.8645,2.8645,2.8546,2.8543,2.8541,2.8539,2.8517,2.8519,2.852,0,0,0,0,0,0,0,0,0,0,0,0,0,2.8622,2.8623,2.8667,2.8667,2.8666,2.8645,2.8645,2.8645,2.8546,2.8543,2.854,2.8538,2.8516,2.8518,2.852,0,0,0,0,0,0,0,0,0,0,0,0,0,2.8625,2.8623,2.8667,2.8614,2.861,2.8645,2.8645,2.8645,2.8547,2.8543,2.854,2.8536,2.8516,2.8518,2.8521,2.8605,0,0,2.8528,2.8529,0,0,0,0,0,0,0,0,2.8625,2.8627,2.8622,2.8618,2.8613,2.8594,2.8621,2.8631,2.8547,2.8571,2.8539,2.8535,2.8546,2.8545,2.8549,2.8604,2.8603,2.8528,2.8529,2.8531,2.8531,0,0,0,0,0,0,0,2.8625,2.8627,2.8658,2.8623,2.8617,2.8592,2.8588,2.8622,2.8578,2.8568,2.8561,2.856,2.8542,2.8547,2.8548,2.8603,2.8528,2.853,2.8532,2.8532,2.8723,2.8726,0,0,0,0,0,0,2.8632,2.8628,2.8659,2.8658,2.861,2.8595,2.8592,2.8604,2.8577,2.857,2.8563,2.8555,2.8545,2.8545,2.8547,2.864,2.853,2.8533,2.8534,2.8719,2.8723,2.8727,0,0,0,0,0,0,2.8631,2.8636,2.866,2.8641,2.8642,2.86,2.8614,2.8605,2.861,2.8573,2.8565,2.8576,2.8542,2.8543,2.859,2.8638,2.8534,2.8536,2.8715,2.872,2.8725,2.8831,0,0,0,0,0,0,2.8631,2.8636,2.8668,2.8642,2.8643,2.8705,2.8618,2.8607,2.8614,2.8604,2.8583,2.8576,2.8539,2.8587,2.8593,2.864,2.8538,2.871,2.8717,2.8724,2.8823,2.884,2.8854,0,0,0,0,0,2.8629,2.87,2.867,2.8675,2.8682,2.8708,2.8708,2.8664,2.8618,2.8649,2.8626,2.8577,2.8633,2.8593,2.8598,2.8647,2.8707,2.8715,2.8723,2.8816,2.8836,2.8853,0,0,0,0,0,0,2.8733,2.8695,2.8662,2.8727,2.8721,2.8691,2.8729,2.8687,2.8695,2.8685,2.863,2.8626,2.8681,2.8669,2.8625,2.8726,2.8661,2.8671,2.8731,2.8749,2.8764,2.8764,2.854,0,0,0,0,0,2.8764,2.8788,2.8753,2.8813,2.8812,2.8772,2.8781,2.8747,2.8739,2.8736,2.8716,2.871,2.8726,2.8738,2.8751,2.8822,2.8814,2.8858,2.8873,2.8886,2.8894,2.8927,2.8945,2.8754,2.8754,2.8754,0,0,2.8827,2.8809,2.8828,2.8834,2.8825,2.885,2.877,2.8801,2.8818,2.8741,2.8783,2.8768,2.8758,2.8817,2.8842,2.8809,2.8945,2.8896,2.8907,2.8907,2.8937,2.8955,2.8972,2.8759,2.8758,2.8758,0,0,2.8953,2.8944,2.899,2.8984,2.8972,2.8944,2.8955,2.8931,2.8918,2.896,2.8901,2.8922,2.8952,2.8945,2.8946,2.9069,2.9023,2.9075,2.9153,2.9187,2.9202,2.9215,2.9255,2.927,2.9084,2.9084,2.9084,0,2.9033,2.9068,2.902,2.9053,2.9056,2.8988,2.9034,2.903,2.9023,2.9027,2.899,2.9024,2.9012,2.9067,2.9096,2.9101,2.911,2.9076,2.9203,2.9216,2.9227,2.9265,2.9281,2.909,2.909,2.9089,2.9088,0,2.9164,2.9189,2.9229,2.9222,2.923,2.9271,2.9228,2.9242,2.9208,2.9184,2.9226,2.921,2.9217,2.9228,2.9196,2.9277,2.9257,2.9213,2.9147,2.9252,2.9287,2.9301,2.9099,2.9097,2.9095,2.9093,0,0,2.9354,2.932,2.9335,2.9329,2.9311,2.9329,2.9366,2.9372,2.9383,2.9381,2.9408,2.9435,2.9393,2.9394,2.9361,2.9391,2.9484,2.9342,2.9341,2.9366,2.9569,2.9599,2.9617,2.9455,2.9458,2.946,2.9569,0,2.9471,2.953,2.9487,2.9553,2.9574,2.9509,2.954,2.9532,2.9511,2.9525,2.9502,2.9519,2.9465,2.9465,2.9492,2.9467,2.9524,2.9459,2.9477,2.9479,2.9478,2.9635,2.9668,2.9771,2.9582,2.9585,2.9586,0,2.9615,2.9618,2.9685,2.9659,2.9667,2.9695,2.9696,2.9711,2.97,2.9682,2.9683,2.9641,2.9674,2.9612,2.9654,2.9611,2.9617,2.9606,2.9609,2.9606,2.9536,2.9633,2.9804,2.9818,2.9608,2.9606,2.9604,0,2.9742,2.9763,2.9804,2.9803,2.9775,2.9796,2.9785,2.9771,2.9776,2.9778,2.978,2.9786,2.9788,2.9793,2.9754,2.9713,2.98,2.9736,2.9784,2.9785,2.9803,2.9801,2.9973,2.9813,2.9813,2.9813,2.9813,0,2.9875,2.9917,2.986,2.9885,2.9931,2.9882,2.9928,2.9911,2.9899,2.9919,2.9865,2.9885,2.9833,2.9848,2.9818,2.9855,2.9858,2.9843,2.9834,2.9846,2.9847,2.9845,2.9836,2.9817,2.9816,2.9815,2.9815,0,3.0022,2.9986,3.0026,2.9996,2.999,3.0024,2.9998,3.002,2.9995,3.0021,3.0025,2.9986,3.0,2.9962,2.9971,2.995,3.0004,2.9985,3.0007,3.0,3.0049,3.0043,3.0222,3.0241,3.0074,3.0076,3.0077,0,3.0107,3.0138,3.0111,3.012,3.0112,3.0128,3.0133,3.0087,3.0094,3.0083,3.0105,3.0115,3.0119,3.0145,3.0117,3.0123,3.0102,3.0164,3.0102,3.0112,3.0098,3.0095,3.0096,3.0176,3.0178,3.0179,3.0181,0,3.026,3.024,3.0249,3.0251,3.0258,3.0258,3.0254,3.0265,3.0215,3.0226,3.0239,3.0243,3.0251,3.0261,3.026,3.0249,3.0206,3.0201,3.0212,3.0222,3.0232,3.0223,3.0037,3.0196,3.0195,3.0193,3.0193,3.0192,3.0376,3.0399,3.0383,3.0394,3.0386,3.0383,3.0401,3.0378,3.0388,3.039,3.0363,3.0381,3.0367,3.0362,3.0355,3.0369,3.034,3.0357,3.036,3.0364,3.037,3.0233,3.0369,3.0369,3.0368,3.0368,3.0367,0,3.0523,3.0509,3.052,3.0515,3.0523,3.0483,3.0476,3.0485,3.0502,3.0493,3.0498,3.0512,3.0521,3.0494,3.0498,3.0514,3.0494,3.0516,3.0512,3.0509,3.0398,3.0386,3.0532,3.0532,3.0532,3.0532,3.0532,3.0531,3.06,3.0635,3.0613,3.0644,3.063,3.0646,3.0646,3.0642,3.0634,3.0652,3.0658,3.0641,3.0624,3.0626,3.0632,3.0624,3.0626,3.0654,3.0639,3.0534,3.0518,3.0502,3.0491,3.0656,3.0657,3.0749,3.075,3.0751]},{"header":{"parameterUnit":"m.s-1","parameterCategory":1,"la1":30.2991,"la2":30.254,"lo1":-89.0895,"lo2":-89.0444,"dy":0.0017,"dx":0.0017,"nx":28,"ny":28,"refTime":"2025-08-23T09:00:00:Z","depth":0,"parameterNumber":3,"parameterNumberName":"V-component_of_WINDS"},"data":[0,0,0,0,0,0,0,0,0,0,0,0,0,0,0,0,0,0,0,0,0,0,0,0,0,0,0,0,0,0,0,0,0,0,0,0,0,0,0,0,0,0,0,0,0,0,0,0,0,0,0,0,0,0,0,0,0,0,3.4934,3.4935,0,3.5029,3.503,3.5031,3.5001,3.4999,3.4997,3.4995,3.5085,3.509,3.5094,0,0,0,0,0,0,0,0,0,0,0,0,0,3.4718,3.4722,3.4934,3.4935,3.4936,3.5028,3.503,3.5031,3.5001,3.4998,3.4996,3.4994,3.5084,3.5089,3.5094,0,0,0,0,0,0,0,0,0,0,0,0,0,3.4812,3.4724,3.4934,3.4932,3.4933,3.5028,3.503,3.5031,3.5001,3.4998,3.4995,3.4993,3.5082,3.5089,3.5095,3.5195,0,0,3.5115,3.5117,0,0,0,0,0,0,0,0,3.4807,3.482,3.4931,3.4933,3.4934,3.5,3.4987,3.5086,3.5002,3.4975,3.4995,3.4991,3.5059,3.5067,3.5091,3.5199,3.5203,3.5115,3.5119,3.5122,3.5124,0,0,0,0,0,0,0,3.48,3.4816,3.4971,3.4933,3.4934,3.4924,3.4934,3.5006,3.5033,3.4977,3.4976,3.4987,3.5059,3.5085,3.5093,3.5204,3.5115,3.5121,3.5125,3.5127,3.5395,3.5398,0,0,0,0,0,0,3.4794,3.4811,3.4968,3.4974,3.4862,3.4931,3.4942,3.4982,3.5032,3.5037,3.499,3.4986,3.5076,3.5086,3.5096,3.5215,3.5122,3.5128,3.5131,3.5392,3.5396,3.5399,0,0,0,0,0,0,3.479,3.4809,3.4964,3.4892,3.4911,3.4938,3.4982,3.4985,3.5011,3.5041,3.5045,3.5012,3.5074,3.5087,3.517,3.5218,3.5131,3.5136,3.5388,3.5393,3.5397,3.5454,0,0,0,0,0,0,3.4784,3.4807,3.4848,3.4893,3.4915,3.504,3.4985,3.4989,3.5023,3.5019,3.5063,3.5068,3.5072,3.5161,3.5177,3.5225,3.5142,3.5384,3.539,3.5396,3.5448,3.546,3.5471,0,0,0,0,0,3.4776,3.4859,3.485,3.4869,3.4967,3.5042,3.5055,3.506,3.5027,3.5067,3.5085,3.5066,3.521,3.517,3.5187,3.5238,3.5381,3.5388,3.5395,3.5443,3.5458,3.547,0,0,0,0,0,0,3.4817,3.4865,3.4856,3.4956,3.4996,3.5037,3.5087,3.5076,3.5124,3.5117,3.5119,3.513,3.5215,3.5234,3.5189,3.5335,3.529,3.5301,3.532,3.5334,3.5345,3.5339,3.5147,0,0,0,0,0,3.4838,3.4898,3.4936,3.5021,3.5041,3.5061,3.5094,3.5095,3.5135,3.5151,3.5175,3.5213,3.5266,3.5301,3.5352,3.545,3.5458,3.5493,3.5504,3.5514,3.5523,3.5574,3.559,3.5423,3.5423,3.5423,0,0,3.4882,3.4915,3.4953,3.503,3.5061,3.512,3.5075,3.514,3.5183,3.516,3.524,3.5259,3.5301,3.5391,3.5432,3.541,3.5571,3.5523,3.553,3.5535,3.5583,3.5599,3.5613,3.5428,3.5427,3.5426,0,0,3.4992,3.5024,3.5098,3.5129,3.5176,3.5188,3.5206,3.5249,3.5261,3.5342,3.5324,3.5374,3.5466,3.5496,3.5523,3.5641,3.5625,3.5657,3.5716,3.5766,3.5779,3.579,3.5831,3.5846,3.5666,3.5667,3.5667,0,3.5039,3.5131,3.5136,3.5203,3.5236,3.5218,3.529,3.532,3.538,3.5402,3.5377,3.5491,3.5517,3.5613,3.5642,3.5665,3.5683,3.5653,3.5777,3.5789,3.5799,3.5838,3.5853,3.567,3.567,3.5669,3.5669,0,3.5186,3.5249,3.5303,3.5363,3.5402,3.5471,3.5484,3.5522,3.5518,3.5531,3.5612,3.5643,3.5699,3.5721,3.5718,3.5816,3.5801,3.5776,3.5731,3.5819,3.5855,3.587,3.5675,3.5674,3.5673,3.5672,0,0,3.5327,3.5388,3.5407,3.5433,3.5483,3.553,3.5596,3.5653,3.5684,3.5725,3.5779,3.5856,3.5833,3.5864,3.5863,3.5907,3.5996,3.5876,3.5877,3.5897,3.6103,3.6121,3.6139,3.5985,3.5987,3.599,3.6099,0,3.544,3.556,3.5565,3.5673,3.573,3.5712,3.5769,3.5804,3.5818,3.5865,3.5879,3.5933,3.59,3.5918,3.596,3.5976,3.6037,3.5968,3.6033,3.6035,3.6023,3.6158,3.6178,3.628,3.6114,3.6116,3.6118,0,3.5589,3.5637,3.5751,3.579,3.5813,3.5866,3.5916,3.5962,3.6,3.6006,3.604,3.6032,3.6096,3.6048,3.6135,3.6088,3.6114,3.6126,3.6129,3.6136,3.6082,3.6167,3.6313,3.6328,3.614,3.6138,3.6137,0,3.5679,3.5771,3.585,3.5873,3.5921,3.5957,3.5978,3.6013,3.6045,3.6088,3.6108,3.6157,3.6184,3.6221,3.6225,3.619,3.6312,3.6265,3.6317,3.6317,3.6344,3.6343,3.6496,3.6362,3.6362,3.6361,3.6361,0,3.5805,3.5875,3.5891,3.594,3.6017,3.602,3.6095,3.6112,3.6143,3.6193,3.6179,3.6225,3.6228,3.6275,3.6278,3.6349,3.6361,3.6366,3.6366,3.6368,3.6367,3.6385,3.6378,3.6365,3.6364,3.6364,3.6363,0,3.5919,3.5933,3.6018,3.6056,3.6067,3.6121,3.6152,3.6197,3.6208,3.6271,3.6286,3.6303,3.6357,3.6365,3.6427,3.6429,3.6514,3.6507,3.6502,3.6501,3.6553,3.6548,3.6723,3.6745,3.6597,3.6598,3.66,0,3.5999,3.6052,3.6096,3.6129,3.6152,3.6206,3.6239,3.6242,3.6277,3.6322,3.6361,3.6414,3.6456,3.6542,3.6559,3.6606,3.6599,3.6657,3.6606,3.6605,3.6599,3.6596,3.66,3.6667,3.6669,3.667,3.6671,0,3.6138,3.6142,3.6191,3.6242,3.6282,3.6322,3.636,3.6387,3.6395,3.6433,3.6489,3.6522,3.6586,3.6638,3.6684,3.6702,3.6688,3.6687,3.6701,3.6704,3.6698,3.6701,3.6529,3.6683,3.6682,3.6681,3.668,3.668,3.6237,3.6283,3.632,3.6375,3.6403,3.6438,3.6482,3.6499,3.6546,3.66,3.6598,3.6658,3.6691,3.6751,3.6773,3.6818,3.6799,3.682,3.6826,3.6831,3.6836,3.6691,3.6827,3.6826,3.6826,3.6826,3.6825,0,3.6375,3.6397,3.6448,3.6501,3.6543,3.6527,3.6566,3.6602,3.6656,3.6689,3.6731,3.6793,3.6842,3.6862,3.6909,3.6942,3.6936,3.6954,3.6952,3.6956,3.6851,3.6833,3.6958,3.6958,3.6958,3.6958,3.6958,3.6958,3.6452,3.6528,3.6535,3.6624,3.6646,3.6707,3.673,3.6761,3.6787,3.6858,3.69,3.6912,3.6939,3.6988,3.7031,3.7035,3.7053,3.7074,3.7075,3.6977,3.6963,3.695,3.6934,3.7078,3.7078,3.7176,3.7177,3.7177]}]]